EW5720 Weather Reports


time (UTC)temp
F
wind
direction
speed
knots
gust
knots
rain 1hr
in
rain 24hr
in
rain mn
in
humidity
%
barometer
mb
20260504050555 52 213 3.5 7.8 0.00 0.00 0.00 48 1004.1
20260504045552 52 217 2.6 6.1 0.00 0.00 0.00 47 1004.2
20260504045052 52 218 0.9 4.3 0.00 0.00 0.00 47 1004.3
20260504044602 52 215 0.9 4.3 0.00 0.00 0.00 48 1004.4
20260504044055 52 215 0.9 4.3 0.00 0.00 0.00 47 1004.4
20260504043555 52 215 1.7 4.3 0.00 0.00 0.00 47 1004.5
20260504043054 52 215 0.9 5.2 0.00 0.00 0.00 47 1004.5
20260504042556 52 215 2.6 5.2 0.00 0.00 0.00 47 1004.5
20260504042055 52 215 2.6 5.2 0.00 0.00 0.00 46 1004.6
20260504041556 53 217 1.7 5.2 0.00 0.00 0.00 46 1004.6
20260504041055 53 217 2.6 4.3 0.00 0.00 0.00 46 1004.7
20260504040557 53 219 1.7 4.3 0.00 0.00 0.00 46 1004.7
20260504040056 53 220 2.6 5.2 0.00 0.00 0.00 46 1004.9
20260504035554 53 221 2.6 5.2 0.00 0.00 0.00 45 1005.0
20260504035054 53 220 3.5 5.2 0.00 0.00 0.00 44 1005.0
20260504034614 53 227 2.6 6.1 0.00 0.00 0.00 43 1005.2
20260504034054 54 234 3.5 6.1 0.00 0.00 0.00 43 1005.2
20260504033554 54 283 3.5 5.2 0.00 0.00 0.00 42 1005.3
20260504033056 54 360 1.7 3.5 0.00 0.00 0.00 42 1005.4
20260504032554 55 0 0.9 3.5 0.00 0.00 0.00 42 1005.4
20260504032054 55 360 1.7 2.6 0.00 0.00 0.00 42 1005.5
20260504031556 55 311 1.7 2.6 0.00 0.00 0.00 41 1005.5
20260504031054 55 311 0.9 2.6 0.00 0.00 0.00 41 1005.3
20260504030554 56 312 0.9 2.6 0.00 0.00 0.00 42 1005.4
20260504030056 56 312 0.9 2.6 0.00 0.00 0.00 42 1005.5
20260504025554 56 311 0.9 2.6 0.00 0.00 0.00 41 1005.6
20260504025054 56 311 0.9 2.6 0.00 0.00 0.00 41 1005.6
20260504024558 57 311 0.9 2.6 0.00 0.00 0.00 40 1005.5
20260504024055 57 313 1.7 3.5 0.00 0.00 0.00 39 1005.3
20260504023555 57 313 1.7 3.5 0.00 0.00 0.00 39 1005.4
20260504023056 58 313 0.9 3.5 0.00 0.00 0.00 38 1005.3
20260504022555 58 0 1.7 3.5 0.00 0.00 0.00 39 1005.3
20260504022054 58 360 0.0 2.6 0.00 0.00 0.00 38 1005.3
20260504021601 59 0 0.0 2.6 0.00 0.00 0.00 38 1005.4
20260504021056 59 0 0.9 2.6 0.00 0.00 0.00 36 1005.3
20260504020553 60 314 0.0 2.6 0.00 0.00 0.00 36 1005.4
20260504020057 60 0 0.9 3.5 0.00 0.00 0.00 36 1005.4
20260504015555 61 313 0.9 3.5 0.00 0.00 0.00 36 1005.5
20260504015054 62 313 0.9 3.5 0.00 0.00 0.00 35 1005.5
20260504014611 62 313 1.7 3.5 0.00 0.00 0.00 34 1005.5
20260504014055 62 315 1.7 2.6 0.00 0.00 0.00 34 1005.6
20260504013557 63 317 0.9 2.6 0.00 0.00 0.00 33 1005.5
20260504013055 63 317 0.9 4.3 0.00 0.00 0.00 33 1005.5
20260504012554 64 317 1.7 4.3 0.00 0.00 0.00 33 1005.6
20260504012054 64 316 1.7 4.3 0.00 0.00 0.00 32 1005.5
20260504011558 64 319 1.7 3.5 0.00 0.00 0.00 32 1005.4
20260504011054 65 319 1.7 5.2 0.00 0.00 0.00 32 1005.5
20260504010554 65 320 1.7 5.2 0.00 0.00 0.00 32 1005.4
20260504010100 65 320 1.7 5.2 0.00 0.00 0.00 31 1005.4
20260504005555 65 303 1.7 7.0 0.00 0.00 0.00 31 1005.4
20260504005055 65 302 2.6 7.0 0.00 0.00 0.00 32 1005.5
20260504004555 66 301 2.6 10.4 0.00 0.00 0.00 32 1005.5
20260504004054 66 305 3.5 10.4 0.00 0.00 0.00 29 1005.4
20260504003554 66 302 4.3 10.4 0.00 0.00 0.00 31 1005.5
20260504003100 66 294 4.3 10.4 0.00 0.00 0.00 29 1005.4
20260504002555 67 298 4.3 8.7 0.00 0.00 0.00 29 1005.5
20260504002054 67 286 3.5 10.4 0.00 0.00 0.00 32 1005.5
20260504001559 68 279 2.6 10.4 0.00 0.00 0.00 29 1005.5
20260504001054 68 300 4.3 12.2 0.00 0.00 0.00 28 1005.5
20260504000553 69 302 4.3 12.2 0.00 0.00 0.00 27 1005.6
20260504000056 69 360 5.2 13.0 0.00 0.00 0.00 27 1005.4
20260503235554 69 360 6.1 13.0 0.00 0.00 0.00 28 1005.5
20260503235057 69 294 7.0 12.2 0.00 0.00 0.00 25 1005.5
20260503234554 69 360 3.5 11.3 0.00 0.00 0.00 29 1005.5
20260503234055 69 360 4.3 11.3 0.00 0.00 0.00 27 1005.5
20260503233555 69 360 3.5 11.3 0.00 0.00 0.00 27 1005.5
20260503233054 70 360 5.2 11.3 0.00 0.00 0.00 26 1005.5
20260503232554 70 288 5.2 13.9 0.00 0.00 0.00 26 1005.5
20260503232058 70 296 5.2 13.9 0.00 0.00 0.00 28 1005.5
20260503231555 71 290 7.0 13.9 0.00 0.00 0.00 26 1005.5
20260503231054 71 360 5.2 13.9 0.00 0.00 0.00 26 1005.6
20260503230555 71 360 6.1 11.3 0.00 0.00 0.00 25 1005.6
20260503230100 71 360 7.0 13.0 0.00 0.00 0.00 24 1005.6
20260503225554 71 279 6.1 13.0 0.00 0.00 0.00 29 1005.6
20260503225054 72 278 5.2 13.0 0.00 0.00 0.00 26 1005.6
20260503224558 72 360 4.3 9.6 0.00 0.00 0.00 26 1005.6
20260503224054 72 360 4.3 9.6 0.00 0.00 0.00 26 1005.5
20260503223554 72 360 3.5 9.6 0.00 0.00 0.00 26 1005.5
20260503223100 72 324 4.3 9.6 0.00 0.00 0.00 26 1005.5
20260503222553 73 305 4.3 10.4 0.00 0.00 0.00 25 1005.5
20260503222053 72 360 3.5 10.4 0.00 0.00 0.00 25 1005.4
20260503221601 72 360 6.1 10.4 0.00 0.00 0.00 25 1005.5
20260503221054 72 305 3.5 10.4 0.00 0.00 0.00 29 1005.4
20260503220554 73 333 5.2 10.4 0.00 0.00 0.00 24 1005.5
20260503220057 73 314 5.2 11.3 0.00 0.00 0.00 27 1005.5
20260503215553 73 328 4.3 11.3 0.00 0.00 0.00 24 1005.6
20260503215054 73 10 4.3 12.2 0.00 0.00 0.00 24 1005.5
20260503214602 73 304 4.3 12.2 0.00 0.00 0.00 27 1005.6
20260503214054 73 336 4.3 12.2 0.00 0.00 0.00 23 1005.6
20260503213554 73 330 3.5 12.2 0.00 0.00 0.00 27 1005.7
20260503213107 73 298 6.1 12.2 0.00 0.00 0.00 24 1005.8
20260503212558 74 288 6.1 15.6 0.00 0.00 0.00 23 1005.8
20260503212054 74 329 4.3 15.6 0.00 0.00 0.00 23 1005.8
20260503211555 74 334 4.3 12.2 0.00 0.00 0.00 24 1005.8
20260503211053 74 360 6.1 12.2 0.00 0.00 0.00 26 1005.8
20260503210554 74 307 4.3 13.9 0.00 0.00 0.00 27 1005.7
20260503210105 73 360 4.3 14.8 0.00 0.00 0.00 26 1005.8
20260503205555 74 317 5.2 14.8 0.00 0.00 0.00 26 1005.8
20260503205056 74 312 7.0 14.8 0.00 0.00 0.00 29 1005.8
20260503204608 73 360 6.1 10.4 0.00 0.00 0.00 24 1005.8
20260503204058 73 360 4.3 13.9 0.00 0.00 0.00 28 1005.9
20260503203554 74 314 3.5 13.9 0.00 0.00 0.00 27 1005.9
20260503203105 74 322 6.1 13.9 0.00 0.00 0.00 28 1006.0
20260503202554 74 314 4.3 12.2 0.00 0.00 0.00 27 1005.9
20260503202054 74 302 5.2 12.2 0.00 0.00 0.00 25 1006.0
20260503201556 74 360 7.0 13.0 0.00 0.00 0.00 26 1005.9
20260503201054 73 327 6.1 13.0 0.00 0.00 0.00 32 1006.0
20260503200557 73 360 4.3 13.0 0.00 0.00 0.00 31 1005.9
20260503195555 74 360 5.2 14.8 0.00 0.00 0.00 26 1006.1
20260503195054 74 360 5.2 14.8 0.00 0.00 0.00 32 1006.1
20260503194600 73 360 5.2 13.9 0.00 0.00 0.00 26 1006.0
20260503194058 74 11 6.1 16.5 0.00 0.00 0.00 26 1006.1
20260503193555 74 306 6.1 16.5 0.00 0.00 0.00 27 1006.0
20260503193112 74 279 4.3 11.3 0.00 0.00 0.00 28 1006.0
20260503192554 74 315 4.3 11.3 0.00 0.00 0.00 24 1006.1
20260503192054 73 360 4.3 13.0 0.00 0.00 0.00 29 1006.2
20260503191602 73 330 6.1 13.0 0.00 0.00 0.00 27 1006.4
20260503191054 73 360 5.2 13.0 0.00 0.00 0.00 29 1006.4
20260503190554 73 360 5.2 13.0 0.00 0.00 0.00 27 1006.2
20260503190057 73 311 5.2 12.2 0.00 0.00 0.00 25 1006.2
20260503185554 74 344 4.3 12.2 0.00 0.00 0.00 31 1006.3
20260503185058 73 317 4.3 13.9 0.00 0.00 0.00 28 1006.2
20260503184609 72 360 6.1 13.9 0.00 0.00 0.00 32 1006.2
20260503184054 73 20 6.1 13.0 0.00 0.00 0.00 28 1006.2
20260503183554 72 319 7.0 13.0 0.00 0.00 0.00 28 1006.2
20260503183109 73 328 5.2 17.4 0.00 0.00 0.00 36 1006.2
20260503182556 73 329 5.2 17.4 0.00 0.00 0.00 35 1006.3
20260503182057 72 360 5.2 15.6 0.00 0.00 0.00 34 1006.3
20260503181607 72 28 5.2 15.6 0.00 0.00 0.00 29 1006.3
20260503181054 73 318 4.3 16.5 0.00 0.00 0.00 31 1006.2
20260503180554 72 313 7.8 16.5 0.00 0.00 0.00 32 1006.4
20260503180058 73 339 5.2 13.0 0.00 0.00 0.00 32 1006.4
20260503175554 72 360 6.1 18.2 0.00 0.00 0.00 32 1006.4
20260503175059 72 360 6.1 18.2 0.00 0.00 0.00 36 1006.5
20260503174554 72 309 5.2 14.8 0.00 0.00 0.00 35 1006.4
20260503174054 71 311 6.1 14.8 0.00 0.00 0.00 33 1006.5
20260503173554 71 360 4.3 15.6 0.00 0.00 0.00 32 1006.4
20260503173101 71 324 6.1 15.6 0.00 0.00 0.00 36 1006.4
20260503172553 71 360 6.1 16.5 0.00 0.00 0.00 35 1006.5
20260503172053 71 9 6.1 16.5 0.00 0.00 0.00 35 1006.4
20260503171555 70 13 6.1 18.2 0.00 0.00 0.00 37 1006.6
20260503171053 70 360 6.1 18.2 0.00 0.00 0.00 40 1006.5
20260503170554 70 360 4.3 14.8 0.00 0.00 0.00 38 1006.5
20260503150553 62 349 5.2 12.2 0.00 0.00 0.00 49 1006.1
20260503131053 53 244 5.2 14.8 0.00 0.00 0.00 55 1006.2
20260503130553 53 218 5.2 13.9 0.00 0.00 0.00 59 1006.1
20260503110553 49 191 5.2 12.2 0.00 0.00 0.00 58 1006.5
20260503081622 53 211 7.8 13.0 0.00 0.00 0.00 47 1010.0
20260503081053 54 204 4.3 9.6 0.00 0.00 0.00 50 1010.0
20260503080553 54 184 4.3 10.4 0.00 0.00 0.00 49 1009.9
20260503080110 54 189 4.3 14.8 0.00 0.00 0.00 47 1009.9
20260503072553 55 229 8.7 13.9 0.00 0.00 0.00 42 1010.8
20260503072053 55 208 6.1 12.2 0.00 0.00 0.00 42 1010.9
20260503071558 55 262 7.0 16.5 0.00 0.00 0.00 42 1011.1
20260503071055 54 216 6.1 16.5 0.00 0.00 0.00 42 1011.0
20260503070558 54 217 7.8 13.0 0.00 0.00 0.00 42 1010.8
20260503070109 54 221 7.8 13.0 0.00 0.00 0.00 43 1010.6